Presure
264 261 249 262 253 277 290 293 279 238 230 226 214 204 222 211 227 211 207 207 220 199 199 196 189 177 202 179 194 211 215 226 213 212 216 196 205 204 203 190 184 180 172
287 275 266 254 266 260 280 265 276 285 255 280 280 296 277 223 225 213 210 199 203 191 200 183 197 199 185 190 207 213 229 224 215 213 216 203 196 202 219 191 182 187 180
280 276 265 257 254 266 282 277 275 267 243 265 264 268 251 256 235 225 202 222 217 203 200 194 196 197 209 209 214 204 222 228 217 222 210 205 200 194 217 205 188 183 191
260 283 279 271 265 268 274 269 270 263 252 251 255 262 247 241 230 225 223 220 204 203 200 199 194 173 206 212 207 208 201 226 246 236 219 212 200 202 225 203 203 194 183
274 278 271 263 258 264 235 272 271 262 254 246 245 256 246 240 225 227 225 216 198 198 210 204 182 200 202 199 208 206 212 230 240 223 236 210 196 201 201 209 199 200 198
255 270 256 252 255 256 255 271 264 255 254 248 239 250 237 235 226 233 217 214 205 205 193 195 199 193 201 204 214 213 225 232 236 233 237 204 192 194 231 190 201 213 202
232 232 240 240 256 257 261 269 264 252 250 245 239 234 242 238 228 219 217 203 205 205 204 197 197 197 205 198 186 200 209 229 228 240 221 208 202 210 214 207 193 214 215
235 250 245 247 249 263 263 263 272 259 248 242 239 235 232 234 227 220 216 215 212 207 209 203 197 201 191 191 195 190 210 221 228 238 217 206 202 194 207 204 212 208 210
200 250 255 257 260 257 256 257 273 269 258 247 239 236 237 223 219 219 207 219 127 184 212 205 201 194 201 217 212 220 209 188 218 258 236 205 195 188 201 202 210 215 203
255 246 243 253 263 250 253 259 257 266 274 254 241 239 235 232 224 226 225 222 138 130 210 212 211 203 193 183 195 202 190 194 212 221 231 212 197 203 190 194 193 213 213
252 239 258 244 253 237 248 252 263 267 265 275 254 239 237 236 228 226 228 175 221 206 138 217 204 200 181 181 196 202 194 196 197 205 218 233 203 191 198 195 194 193 199
271 229 264 250 244 244 264 260 257 265 276 263 274 248 237 232 237 227 221 223 217 212 212 214 213 203 199 205 196 214 187 211 187 189 193 224 223 202 197 195 193 192 186
143 236 275 267 256 263 262 261 262 275 256 262 269 274 256 237 229 227 228 228 217 214 218 149 217 166 198 205 197 206 224 198 211 196 229 222 219 227 195 192 197 198 191
183 250 273 261 254 261 280 240 250 156 251 281 285 274 273 255 235 233 229 240 245 229 220 215 217 206 201 190 179 207 212 187 212 216 208 240 222 234 206 198 194 190 193
254 258 251 267 195 259 263 247 218 257 258 238 280 277 279 273 270 241 236 235 235 233 220 216 220 210 207 202 203 206 200 196 185 217 208 219 219 237 242 213 202 196 194
265 252 260 283 267 224 298 290 230 272 289 248 229 254 252 241 272 278 249 243 242 229 217 222 226 219 214 208 197 198 205 197 207 189 211 199 193 198 214 240 225 200 199
263 262 278 277 286 273 291 298 300 303 299 303 239 246 229 242 271 310 274 272 254 254 240 236 224 224 213 218 197 215 228 205 192 218 198 206 230 196 192 201 229 234 202
295 292 288 284 375 368 365 376 375 379 378 390 250 413 247 239 243 272 280 287 224 272 256 242 237 230 223 215 192 220 226 225 216 211 224 204 193 206 201 195 224 229 228
328 329 330 335 357 345 343 351 344 342 351 360 361 372 386 267 306 241 261 289 298 275 262 269 246 235 229 219 206 226 224 215 218 220 204 205 198 209 220 211 232 239 226
317 316 326 326 337 319 319 319 319 324 335 341 349 359 378 394 250 273 249 273 299 294 274 261 262 259 243 225 228 235 231 218 234 229 213 217 215 208 206 224 221 257 238
304 334 341 310 333 311 314 310 308 316 317 326 339 344 345 354 376 325 345 269 306 289 292 268 261 247 238 232 216 219 232 229 227 214 220 216 206 219 221 218 225 219 248
345 378 325 308 337 311 311 304 311 314 328 330 324 340 348 357 364 377 376 288 307 292 287 271 252 241 236 227 228 224 215 224 235 226 227 229 232 197 206 217 202 208 229
342 336 302 305 337 320 312 298 306 307 311 318 328 332 336 346 373 294 272 307 308 296 280 259 257 236 232 235 245 226 216 222 225 222 218 218 226 223 219 226 244 239 230
318 333 315 300 298 336 315 301 303 305 305 313 324 329 340 321 376 396 260 461 297 296 272 235 253 243 232 188 225 226 229 228 228 228 229 233 224 219 232 239 237 239 239
303 307 310 318 313 315 317 321 304 303 304 312 319 320 324 338 335 344 294 399 293 289 273 261 256 249 236 221 234 233 229 222 223 219 220 225 234 241 251 247 229 246 236
292 296 300 304 308 300 312 322 334 306 308 303 312 320 316 322 306 341 343 336 293 289 256 243 250 244 248 243 234 231 229 237 241 237 239 217 228 242 236 244 231 234 228
Wind_Speed
70 64 61 65 59 55 58 62 78 84 78 77 79 84 82 78 82 79 71 60 62 63 61 61 61 58 58 55 48 51 50 44 47 46 46 47 47 49 53 51 49 44 43
63 65 63 62 61 56 56 64 68 66 64 53 52 57 65 81 80 77 72 70 61 66 63 61 63 62 61 59 56 50 42 45 45 48 48 50 51 49 51 54 47 50 47
55 59 60 59 57 57 62 67 67 59 58 54 51 55 64 72 78 79 73 70 61 63 62 63 61 59 56 57 53 52 43 46 48 50 52 53 53 50 51 51 48 54 50
46 52 55 60 58 53 59 63 64 57 58 56 50 55 64 66 71 72 72 67 67 59 61 58 59 51 54 53 54 54 51 44 47 50 53 54 53 50 48 48 51 55 57
40 41 47 49 45 50 50 56 62 58 59 57 53 54 63 64 71 70 68 68 60 59 53 58 54 60 56 57 56 52 48 42 43 49 50 52 50 47 48 48 52 57 59
36 41 41 43 46 48 51 55 57 56 59 57 56 53 62 65 67 64 67 61 58 62 63 61 60 58 56 53 50 48 41 39 42 47 47 50 48 49 48 53 52 53 58
44 48 43 46 47 48 53 56 60 62 61 60 61 61 61 65 68 70 68 65 65 64 63 62 60 59 56 53 47 45 39 37 42 46 49 49 49 48 48 52 56 51 53
52 52 55 56 52 53 52 54 57 65 65 64 65 66 68 69 72 70 69 70 68 67 64 63 60 44 53 51 54 52 41 34 42 46 52 50 48 49 49 49 50 51 54
47 59 61 61 59 55 53 54 55 63 68 68 68 70 70 70 70 70 64 70 33 51 66 65 59 51 49 57 51 44 44 49 39 41 50 53 49 49 49 50 51 52 56
74 70 62 59 62 60 56 54 59 60 65 72 73 72 73 74 73 74 72 73 37 30 69 66 61 63 70 57 58 57 58 52 38 40 46 55 51 51 50 51 51 52 53
76 57 70 61 61 58 57 56 56 60 62 65 76 75 75 75 76 72 71 59 73 67 39 64 67 64 49 54 57 58 65 58 52 45 43 50 56 51 52 51 55 53 53
80 59 78 57 50 45 66 63 62 64 65 67 67 79 78 77 78 75 73 73 72 71 68 67 68 66 69 70 60 65 58 58 58 55 52 50 54 58 56 55 57 56 56
20 63 86 81 56 67 61 61 60 68 64 66 70 70 81 80 79 77 76 76 75 73 74 42 69 42 69 72 71 66 63 56 59 60 48 51 54 58 59 57 58 59 59
42 55 88 74 53 70 85 54 58 31 54 67 70 70 74 84 82 81 78 80 80 78 76 72 72 69 69 59 40 72 68 46 64 62 52 57 53 56 64 62 60 60 61
58 64 56 72 38 62 62 56 39 58 60 54 61 66 78 80 87 86 85 83 81 80 77 76 75 74 77 79 77 73 65 62 51 63 51 48 52 53 59 64 65 66 66
79 60 68 98 82 56 102 88 56 72 84 65 48 55 67 60 81 85 92 90 87 82 79 79 77 81 78 82 78 74 79 59 76 56 69 54 58 55 51 61 66 68 69
73 75 93 85 89 64 88 93 88 77 78 79 53 62 47 59 74 78 87 94 93 91 85 80 80 79 80 77 69 81 74 83 51 84 58 67 65 59 58 56 61 69 74
84 77 70 62 37 35 38 35 35 37 42 40 51 44 51 53 46 79 79 88 66 92 87 82 79 78 79 78 67 79 76 77 85 74 83 65 55 66 60 59 66 70 75
40 41 41 41 34 33 34 33 32 33 33 35 37 37 40 64 55 53 52 74 86 90 84 79 79 79 77 81 75 77 80 80 80 84 74 68 63 77 72 74 68 73 75
36 38 39 38 32 32 31 29 30 33 34 31 36 39 34 35 60 59 56 56 77 83 83 75 74 75 74 78 79 76 77 82 79 83 83 88 84 81 76 74 73 69 78
36 42 37 35 33 33 31 30 30 27 29 32 29 32 36 38 38 50 68 57 71 77 79 74 71 72 74 78 77 78 70 77 80 84 87 88 81 86 80 80 75 76 74
36 31 31 30 34 35 34 32 25 26 26 21 29 26 29 34 38 41 43 55 64 74 74 71 72 75 75 78 79 77 75 73 70 73 74 76 76 64 70 80 75 65 81
26 25 30 29 29 35 34 33 29 27 23 22 21 24 30 30 26 45 48 53 63 75 73 70 75 74 77 76 72 80 79 76 72 77 80 80 80 80 78 76 76 76 81
28 21 30 30 30 31 36 34 32 30 26 23 22 23 23 27 16 19 51 32 60 73 71 67 76 74 72 46 76 77 75 77 79 80 82 84 82 81 80 76 75 78 81
32 29 27 26 29 30 32 39 36 33 30 22 20 21 22 15 20 25 47 32 61 68 72 71 72 74 75 73 75 76 78 78 82 83 82 83 85 81 76 75 79 79 83
34 34 34 33 31 33 34 37 40 36 32 27 22 20 22 18 28 21 29 51 60 65 66 66 69 70 73 75 77 71 79 79 80 84 85 75 83 73 77 76 80 82 83
Wind_Direction
238 232 243 236 248 243 228 226 231 234 238 236 238 243 235 242 234 238 243 241 243 248 249 252 256 259 263 260 264 263 264 251 252 253 241 238 238 236 237 240 242 245 248
237 233 236 242 242 242 224 235 235 239 237 237 232 232 226 236 236 239 240 246 239 250 247 252 255 256 259 264 266 261 256 249 246 243 245 239 242 241 241 244 251 248 247
227 231 233 237 240 240 227 230 229 233 233 236 230 225 224 225 232 235 240 238 237 239 245 251 254 257 259 261 259 261 257 254 249 239 242 239 241 244 247 246 250 250 246
225 226 229 230 235 239 234 236 233 231 232 234 229 225 221 224 230 233 233 231 237 241 245 249 253 256 257 256 259 258 261 261 253 244 239 239 243 249 249 244 246 245 247
217 220 223 228 234 239 242 237 233 229 227 229 229 228 221 218 226 228 227 230 242 241 251 248 251 252 254 257 257 261 262 265 254 245 241 238 243 249 245 243 243 244 246
237 231 230 234 237 241 242 236 232 228 228 226 224 226 222 222 224 225 226 231 233 237 244 245 249 253 255 256 257 260 264 267 255 246 238 241 246 247 249 246 247 247 245
231 230 232 230 238 240 242 241 233 228 227 224 223 223 223 223 220 223 225 232 231 235 239 244 248 253 256 258 257 259 258 264 254 246 236 242 244 247 245 244 251 249 246
235 239 234 235 232 237 235 235 236 229 225 223 223 223 222 221 221 226 225 228 232 235 237 241 244 253 260 255 252 253 252 256 254 250 238 242 244 246 247 249 251 251 249
243 236 236 235 235 231 233 235 240 234 230 225 223 224 224 224 224 226 229 228 270 244 235 239 240 237 244 248 250 244 244 250 253 258 244 243 243 248 251 253 254 252 247
230 235 237 232 232 228 230 236 235 238 237 227 225 225 225 225 225 227 227 229 264 270 232 235 235 232 243 249 248 242 247 247 246 257 252 241 243 246 249 254 258 256 254
232 238 239 238 236 243 240 238 243 242 239 239 229 224 226 227 226 227 227 240 228 233 265 234 237 239 239 254 243 242 247 243 246 242 253 251 243 244 249 251 255 258 258
235 241 236 243 242 250 245 245 244 243 241 239 238 229 227 226 229 228 228 228 228 232 235 234 234 239 243 241 250 241 249 247 245 248 249 250 244 243 246 249 253 255 258
255 244 235 241 259 250 255 254 253 250 247 247 241 239 232 229 229 230 230 230 230 232 232 251 230 235 244 242 250 247 247 248 253 243 254 248 246 247 246 248 252 254 257
250 253 242 248 256 254 251 238 261 247 251 254 246 243 240 233 231 231 231 231 226 228 229 231 231 234 239 239 238 244 247 245 255 255 244 264 247 251 242 248 252 255 257
256 253 258 257 236 260 258 256 261 250 253 243 259 251 242 241 235 231 232 232 230 227 229 229 227 233 235 240 246 247 250 249 248 255 252 249 254 253 253 246 250 256 260
255 259 263 255 262 259 261 264 251 258 261 247 253 251 240 242 242 236 233 233 232 230 230 227 225 228 232 236 246 249 247 250 253 250 256 248 252 255 259 254 253 255 258
255 257 255 263 264 269 272 272 271 267 265 264 244 250 246 248 234 241 236 237 233 233 230 228 229 229 232 234 245 245 245 252 250 254 255 262 261 255 258 269 259 255 256
255 261 266 270 276 271 270 276 273 274 270 267 244 263 243 240 240 238 235 234 243 236 232 228 228 229 230 233 240 244 245 243 249 249 252 257 260 269 267 266 271 260 255
267 268 268 276 269 269 273 275 273 273 274 267 267 264 259 248 243 230 241 234 229 232 233 231 229 230 229 232 239 240 243 247 248 251 257 261 264 271 268 275 266 258 259
276 276 278 279 267 262 269 272 275 279 282 279 273 273 267 266 227 237 229 238 230 226 230 227 228 227 226 232 237 239 240 245 245 248 258 259 262 269 269 270 269 257 255
283 283 274 279 259 264 262 263 269 274 271 273 270 263 262 260 256 241 233 228 224 224 225 225 221 222 224 228 239 242 242 244 249 255 256 258 263 263 265 265 265 265 260
289 282 272 277 255 259 262 264 263 270 270 270 266 270 271 265 262 250 237 222 219 220 218 218 217 222 224 229 233 238 246 248 246 251 254 256 256 259 261 263 267 266 261
292 274 277 273 269 255 258 265 260 260 264 267 275 265 268 275 272 226 218 220 216 216 215 214 216 222 226 229 232 237 245 246 249 250 255 256 258 259 263 266 268 264 262
285 280 269 273 271 266 257 259 262 262 259 262 270 264 272 257 261 247 224 223 212 214 215 222 215 221 227 255 232 236 239 243 245 248 250 254 257 261 267 268 265 265 265
282 277 275 271 271 269 270 257 257 258 257 260 265 263 265 268 240 225 217 212 212 215 215 216 218 223 228 235 235 237 242 244 246 248 252 257 260 263 261 255 263 257 262
276 273 271 269 268 268 274 269 252 252 253 249 253 253 250 248 224 222 217 208 213 215 216 224 221 223 229 232 236 242 241 242 245 249 252 259 259 255 257 256 262 263 267